PRAETORIAN SDA_617

Last updated on Sat Oct 11 2025 00:02:06 GMT+0000 (Coordinated Universal Time)

1 65580U 25203R 25283.39760458 .00000028 00000+0 14053-4 0 9994 2 65580 81.3022 242.1636 0009329 141.5841 218.5982 13.85060740 4130
UTC large
Height (km)
Speed (km/s)
/
Latitude / Longitude
Inclination (degrees)
Orbital Period (minutes)
Azimuth
Elevation
Range (km)
Doppler Factor

Next 0 passes for location: London (51.5072 / 0.1276)

Sorry there are no passes over London.
PRAETORIAN SDA_617